TA5KA Weather Reports


time (UTC)temp
F
wind
direction
speed
knots
gust
knots
rain 1hr
in
rain 24hr
in
rain mn
in
humidity
%
barometer
mb
20260507105701 63 287 0.9 1.7 0.00 0.00 0.00 42 1021.0
20260507105538 63 287 0.9 1.7 0.00 0.00 0.00 42 1021.0
20260507104658 63 287 0.9 1.7 0.00 0.00 0.00 42 1021.0
20260507104537 63 287 0.9 1.7 0.00 0.00 0.00 42 1021.0
20260507103657 63 287 0.9 1.7 0.00 0.00 0.00 42 1021.0
20260507103536 63 287 0.9 1.7 0.00 0.00 0.00 42 1021.0
20260507102656 63 287 0.9 1.7 0.00 0.00 0.00 42 1021.0
20260507102534 63 287 0.9 1.7 0.00 0.00 0.00 42 1021.0
20260507101654 63 287 0.9 1.7 0.00 0.00 0.00 42 1021.0
20260507101533 63 287 0.9 1.7 0.00 0.00 0.00 42 1021.0
20260507100653 63 287 0.9 1.7 0.00 0.00 0.00 42 1021.0
20260507100531 63 287 0.9 1.7 0.00 0.00 0.00 42 1021.0
20260507095652 63 290 1.7 1.7 0.00 0.00 0.00 42 1021.0
20260507095529 63 290 1.7 1.7 0.00 0.00 0.00 42 1021.0
20260507094650 58 290 1.7 1.7 0.00 0.00 0.00 48 1019.0
20260507094528 58 290 1.7 1.7 0.00 0.00 0.00 48 1019.0
20260507093649 63 290 1.7 1.7 0.00 0.00 0.00 42 1021.0
20260507093527 63 290 1.7 1.7 0.00 0.00 0.00 42 1021.0
20260507092648 61 290 1.7 1.7 0.00 0.00 0.00 39 1021.0
20260507092526 61 290 1.7 1.7 0.00 0.00 0.00 39 1021.0
20260507091646 61 290 1.7 1.7 0.00 0.00 0.00 39 1021.0
20260507091524 61 290 1.7 1.7 0.00 0.00 0.00 39 1021.0
20260507090645 60 290 1.7 1.7 0.00 0.00 0.00 48 1021.0
20260507090522 60 290 1.7 1.7 0.00 0.00 0.00 48 1021.0
20260507085644 59 289 1.7 1.7 0.00 0.00 0.00 48 1021.0
20260507085521 59 289 1.7 1.7 0.00 0.00 0.00 48 1021.0
20260507084642 57 289 1.7 1.7 0.00 0.00 0.00 51 1020.0
20260507084519 57 289 1.7 1.7 0.00 0.00 0.00 51 1020.0
20260507083640 60 289 1.7 1.7 0.00 0.00 0.00 48 1021.0
20260507083518 60 289 1.7 1.7 0.00 0.00 0.00 48 1021.0
20260507082640 59 289 1.7 1.7 0.00 0.00 0.00 55 1022.0
20260507082517 59 289 1.7 1.7 0.00 0.00 0.00 55 1022.0
20260507081638 57 289 1.7 1.7 0.00 0.00 0.00 55 1021.0
20260507081515 57 289 1.7 1.7 0.00 0.00 0.00 55 1021.0
20260507080636 57 289 1.7 1.7 0.00 0.00 0.00 55 1021.0
20260507080513 57 289 1.7 1.7 0.00 0.00 0.00 55 1021.0
20260507075635 58 286 0.9 0.9 0.00 0.00 0.00 55 1021.0
20260507075512 58 286 0.9 0.9 0.00 0.00 0.00 55 1021.0
20260507074634 57 286 0.9 0.9 0.00 0.00 0.00 55 1021.0
20260507074511 57 286 0.9 0.9 0.00 0.00 0.00 55 1021.0
20260507073632 57 277 0.9 0.9 0.00 0.00 0.00 55 1021.0
20260507073510 57 277 0.9 0.9 0.00 0.00 0.00 55 1021.0
20260507072631 56 277 0.9 0.9 0.00 0.00 0.00 58 1021.0
20260507072508 56 277 0.9 0.9 0.00 0.00 0.00 58 1021.0
20260507071630 54 277 0.9 0.9 0.00 0.00 0.00 67 1021.0
20260507071507 54 277 0.9 0.9 0.00 0.00 0.00 67 1021.0
20260507070629 54 277 0.9 0.9 0.00 0.00 0.00 67 1021.0
20260507070505 54 277 0.9 0.9 0.00 0.00 0.00 67 1021.0
20260507065628 54 258 0.9 2.6 0.00 0.00 0.00 67 1021.0
20260507065503 54 258 0.9 2.6 0.00 0.00 0.00 67 1021.0
20260507064626 50 258 0.9 2.6 0.00 0.00 0.00 76 1021.0
20260507064502 50 258 0.9 2.6 0.00 0.00 0.00 76 1021.0
20260507063624 50 258 0.9 2.6 0.00 0.00 0.00 76 1021.0
20260507063501 50 258 0.9 2.6 0.00 0.00 0.00 76 1021.0
20260507062623 49 258 0.9 2.6 0.00 0.00 0.00 81 1021.0
20260507062459 49 258 0.9 2.6 0.00 0.00 0.00 81 1021.0
20260507061622 49 258 0.9 2.6 0.00 0.00 0.00 81 1021.0
20260507061458 49 258 0.9 2.6 0.00 0.00 0.00 81 1021.0
20260507060621 49 258 0.9 2.6 0.00 0.00 0.00 81 1021.0
20260507060457 49 258 0.9 2.6 0.00 0.00 0.00 81 1021.0
20260507055619 49 154 0.9 2.6 0.00 0.00 0.00 81 1021.0
20260507055455 49 154 0.9 2.6 0.00 0.00 0.00 81 1021.0
20260507054618 49 154 0.9 2.6 0.00 0.00 0.00 81 1021.0
20260507054454 49 154 0.9 2.6 0.00 0.00 0.00 81 1021.0
20260507053617 45 154 0.9 2.6 0.00 0.00 0.00 87 1021.0
20260507053453 45 154 0.9 2.6 0.00 0.00 0.00 87 1021.0
20260507052615 45 154 0.9 2.6 0.00 0.00 0.00 87 1021.0
20260507052451 45 154 0.9 2.6 0.00 0.00 0.00 87 1021.0
20260507051614 45 154 0.9 2.6 0.00 0.00 0.00 87 1021.0
20260507051450 45 154 0.9 2.6 0.00 0.00 0.00 87 1021.0
20260507050613 45 343 0.9 2.6 0.00 0.00 0.00 87 1021.0
20260507050449 45 343 0.9 2.6 0.00 0.00 0.00 87 1021.0
20260507045612 45 343 0.9 2.6 0.00 0.00 0.00 87 1021.0
20260507045447 45 343 0.9 2.6 0.00 0.00 0.00 87 1021.0
20260507044610 39 343 0.9 2.6 0.00 0.00 0.00 93 1020.0
20260507044445 39 343 0.9 2.6 0.00 0.00 0.00 93 1020.0
20260507043609 39 343 0.9 2.6 0.00 0.00 0.00 93 1020.0
20260507043444 39 343 0.9 2.6 0.00 0.00 0.00 93 1020.0
20260507042608 39 343 0.9 2.6 0.00 0.00 0.00 93 1020.0
20260507042443 39 343 0.9 2.6 0.00 0.00 0.00 93 1020.0
20260507041606 40 343 0.9 2.6 0.00 0.00 0.00 93 1020.0
20260507041441 40 343 0.9 2.6 0.00 0.00 0.00 93 1020.0
20260507040605 40 343 0.9 2.6 0.00 0.00 0.00 93 1020.0
20260507040439 40 343 0.9 2.6 0.00 0.00 0.00 93 1020.0
20260507035603 40 307 0.9 2.6 0.00 0.00 0.00 93 1020.0
20260507035438 40 307 0.9 2.6 0.00 0.00 0.00 93 1020.0
20260507034601 40 307 0.9 2.6 0.00 0.00 0.00 93 1020.0
20260507034437 40 307 0.9 2.6 0.00 0.00 0.00 93 1020.0
20260507033600 39 307 0.9 2.6 0.00 0.00 0.00 93 1020.0
20260507033435 39 307 0.9 2.6 0.00 0.00 0.00 93 1020.0
20260507032559 39 307 0.9 2.6 0.00 0.00 0.00 93 1020.0
20260507032433 39 307 0.9 2.6 0.00 0.00 0.00 93 1020.0
20260507031558 39 185 0.9 2.6 0.00 0.00 0.00 93 1020.0
20260507031432 39 185 0.9 2.6 0.00 0.00 0.00 93 1020.0
20260507030556 40 185 0.9 2.6 0.00 0.00 0.00 93 1020.0
20260507030430 40 185 0.9 2.6 0.00 0.00 0.00 93 1020.0
20260507025555 40 335 0.9 2.6 0.00 0.00 0.00 93 1020.0
20260507025429 40 335 0.9 2.6 0.00 0.00 0.00 93 1020.0
20260507024553 40 335 0.9 2.6 0.00 0.00 0.00 93 1020.0
20260507024428 40 335 0.9 2.6 0.00 0.00 0.00 93 1020.0
20260507023552 42 335 0.9 2.6 0.00 0.00 0.00 93 1019.0
20260507023427 42 335 0.9 2.6 0.00 0.00 0.00 93 1019.0
20260507022550 42 335 0.9 2.6 0.00 0.00 0.00 93 1019.0
20260507022424 42 335 0.9 2.6 0.00 0.00 0.00 93 1019.0
20260507021548 41 335 0.9 2.6 0.00 0.00 0.00 93 1019.0
20260507021423 41 335 0.9 2.6 0.00 0.00 0.00 93 1019.0
20260507020547 41 329 0.9 0.9 0.00 0.00 0.00 93 1019.0
20260507020422 41 329 0.9 0.9 0.00 0.00 0.00 93 1019.0
20260507015545 42 329 0.9 0.9 0.00 0.00 0.00 93 1019.0
20260507015420 42 329 0.9 0.9 0.00 0.00 0.00 93 1019.0
20260507014545 42 329 0.9 0.9 0.00 0.00 0.00 93 1019.0
20260507014419 42 329 0.9 0.9 0.00 0.00 0.00 93 1019.0
20260507013543 40 329 0.9 0.9 0.00 0.00 0.00 93 1019.0
20260507013418 40 329 0.9 0.9 0.00 0.00 0.00 93 1019.0
20260507012541 39 329 0.9 0.9 0.00 0.00 0.00 93 1019.0
20260507012416 39 329 0.9 0.9 0.00 0.00 0.00 93 1019.0
20260507011540 39 329 0.9 0.9 0.00 0.00 0.00 93 1019.0
20260507011415 39 329 0.9 0.9 0.00 0.00 0.00 93 1019.0
20260507010539 39 329 0.9 0.9 0.00 0.00 0.00 93 1019.0
20260507010414 39 329 0.9 0.9 0.00 0.00 0.00 93 1019.0
20260507005537 39 288 0.9 0.9 0.00 0.00 0.00 93 1019.0
20260507005413 39 288 0.9 0.9 0.00 0.00 0.00 93 1019.0
20260507004536 39 288 0.9 0.9 0.00 0.00 0.00 93 1019.0
20260507004412 39 288 0.9 0.9 0.00 0.00 0.00 93 1019.0
20260507003535 39 288 0.9 0.9 0.00 0.00 0.00 93 1019.0
20260507003410 39 288 0.9 0.9 0.00 0.00 0.00 93 1019.0
20260507002533 39 288 0.9 0.9 0.00 0.00 0.00 93 1019.0
20260507002408 39 288 0.9 0.9 0.00 0.00 0.00 93 1019.0
20260507001532 42 288 0.9 0.9 0.00 0.00 0.00 93 1019.0
20260507001407 42 288 0.9 0.9 0.00 0.00 0.00 93 1019.0
20260507000530 42 288 0.9 0.9 0.00 0.00 0.00 93 1019.0
20260507000406 42 288 0.9 0.9 0.00 0.00 0.00 93 1019.0
20260506235529 42 224 0.9 2.6 0.00 0.00 0.00 93 1019.0
20260506235405 42 224 0.9 2.6 0.00 0.00 0.00 93 1019.0
20260506234528 41 224 0.9 2.6 0.00 0.00 0.00 93 1019.0
20260506234404 41 224 0.9 2.6 0.00 0.00 0.00 93 1019.0
20260506233526 42 224 0.9 2.6 0.00 0.00 0.00 93 1019.0
20260506233402 42 224 0.9 2.6 0.00 0.00 0.00 93 1019.0
20260506232524 43 224 0.9 2.6 0.00 0.00 0.00 87 1019.0
20260506232400 43 224 0.9 2.6 0.00 0.00 0.00 87 1019.0
20260506231523 43 224 0.9 2.6 0.00 0.00 0.00 87 1019.0
20260506231359 43 224 0.9 2.6 0.00 0.00 0.00 87 1019.0
20260506230522 43 224 0.9 2.6 0.00 0.00 0.00 87 1019.0
20260506230358 43 224 0.9 2.6 0.00 0.00 0.00 87 1019.0
20260506225520 43 168 0.9 2.6 0.00 0.00 0.00 87 1019.0
20260506225357 43 168 0.9 2.6 0.00 0.00 0.00 87 1019.0
20260506224519 44 168 0.9 2.6 0.00 0.00 0.00 87 1019.0
20260506224355 44 168 0.9 2.6 0.00 0.00 0.00 87 1019.0
20260506223517 44 168 0.9 2.6 0.00 0.00 0.00 87 1019.0
20260506223354 44 168 0.9 2.6 0.00 0.00 0.00 87 1019.0
20260506222516 44 168 0.9 2.6 0.00 0.00 0.00 87 1019.0
20260506222353 44 168 0.9 2.6 0.00 0.00 0.00 87 1019.0
20260506221515 43 168 0.9 2.6 0.00 0.00 0.00 87 1019.0
20260506221352 43 168 0.9 2.6 0.00 0.00 0.00 87 1019.0
20260506220513 43 168 0.9 2.6 0.00 0.00 0.00 87 1019.0
20260506220351 43 168 0.9 2.6 0.00 0.00 0.00 87 1019.0
20260506215512 44 168 0.9 2.6 0.00 0.00 0.00 87 1019.0
20260506215349 44 168 0.9 2.6 0.00 0.00 0.00 87 1019.0
20260506214511 44 168 0.9 2.6 0.00 0.00 0.00 87 1019.0
20260506214348 44 168 0.9 2.6 0.00 0.00 0.00 87 1019.0
20260506213510 44 168 0.9 2.6 0.00 0.00 0.00 87 1019.0
20260506213347 44 168 0.9 2.6 0.00 0.00 0.00 87 1019.0
20260506212509 43 168 0.9 2.6 0.00 0.00 0.00 93 1019.0
20260506212345 43 168 0.9 2.6 0.00 0.00 0.00 93 1019.0
20260506211507 45 168 0.9 2.6 0.00 0.00 0.00 87 1019.0
20260506211343 45 168 0.9 2.6 0.00 0.00 0.00 87 1019.0
20260506210505 45 168 0.9 2.6 0.00 0.00 0.00 87 1019.0
20260506210342 45 168 0.9 2.6 0.00 0.00 0.00 87 1019.0
20260506205504 45 154 0.9 0.9 0.00 0.00 0.00 87 1019.0
20260506205341 45 154 0.9 0.9 0.00 0.00 0.00 87 1019.0
20260506204502 45 171 0.9 2.6 0.00 0.00 0.00 87 1019.0
20260506204340 45 171 0.9 2.6 0.00 0.00 0.00 87 1019.0
20260506203501 45 171 0.9 2.6 0.00 0.00 0.00 87 1019.0
20260506203339 45 171 0.9 2.6 0.00 0.00 0.00 87 1019.0
20260506202501 45 171 0.9 2.6 0.00 0.00 0.00 93 1019.0
20260506202337 45 171 0.9 2.6 0.00 0.00 0.00 93 1019.0
20260506201458 47 171 0.9 2.6 0.00 0.00 0.00 87 1019.0
20260506201336 47 171 0.9 2.6 0.00 0.00 0.00 87 1019.0
20260506200457 47 171 0.9 2.6 0.00 0.00 0.00 87 1019.0
20260506200335 47 171 0.9 2.6 0.00 0.00 0.00 87 1019.0
20260506195455 47 86 0.9 2.6 0.00 0.00 0.00 87 1019.0
20260506195333 47 86 0.9 2.6 0.00 0.00 0.00 87 1019.0
20260506194454 47 86 0.9 2.6 0.00 0.00 0.00 87 1019.0
20260506194331 47 86 0.9 2.6 0.00 0.00 0.00 87 1019.0
20260506193453 47 86 0.9 2.6 0.00 0.00 0.00 87 1019.0
20260506193330 47 86 0.9 2.6 0.00 0.00 0.00 87 1019.0
20260506192452 48 86 0.9 2.6 0.00 0.00 0.00 81 1018.0
20260506192329 48 86 0.9 2.6 0.00 0.00 0.00 81 1018.0
20260506191450 49 86 0.9 2.6 0.00 0.00 0.00 81 1018.0
20260506191327 49 86 0.9 2.6 0.00 0.00 0.00 81 1018.0
20260506190448 49 86 0.9 2.6 0.00 0.00 0.00 81 1018.0
20260506190326 49 86 0.9 2.6 0.00 0.00 0.00 81 1018.0
20260506185447 48 343 0.9 0.9 0.00 0.00 0.00 81 1018.0
20260506185325 48 343 0.9 0.9 0.00 0.00 0.00 81 1018.0
20260506184446 48 343 0.9 0.9 0.00 0.00 0.00 81 1018.0
20260506184323 48 343 0.9 0.9 0.00 0.00 0.00 81 1018.0
20260506183444 51 343 0.9 0.9 0.00 0.00 0.00 71 1018.0
20260506183322 51 343 0.9 0.9 0.00 0.00 0.00 71 1018.0
20260506182443 51 343 0.9 0.9 0.00 0.00 0.00 71 1018.0
20260506182320 51 343 0.9 0.9 0.00 0.00 0.00 71 1018.0
20260506181441 52 343 0.9 0.9 0.00 0.00 0.00 71 1018.0
20260506181319 52 343 0.9 0.9 0.00 0.00 0.00 71 1018.0
20260506180440 52 317 0.9 2.6 0.00 0.00 0.00 71 1018.0
20260506180317 52 317 0.9 2.6 0.00 0.00 0.00 71 1018.0
20260506175438 52 317 0.9 2.6 0.00 0.00 0.00 71 1018.0
20260506175316 52 317 0.9 2.6 0.00 0.00 0.00 71 1018.0
20260506174437 52 317 0.9 2.6 0.00 0.00 0.00 71 1018.0
20260506174315 52 317 0.9 2.6 0.00 0.00 0.00 71 1018.0
20260506173435 54 317 0.9 2.6 0.00 0.00 0.00 62 1017.0
20260506173313 54 317 0.9 2.6 0.00 0.00 0.00 62 1017.0
20260506172434 55 317 0.9 2.6 0.00 0.00 0.00 58 1017.0
20260506172312 55 317 0.9 2.6 0.00 0.00 0.00 58 1017.0
20260506171432 55 317 0.9 2.6 0.00 0.00 0.00 58 1017.0
20260506171310 55 317 0.9 2.6 0.00 0.00 0.00 58 1017.0
20260506170431 56 292 1.7 2.6 0.00 0.00 0.00 58 1017.0
20260506170308 56 292 1.7 2.6 0.00 0.00 0.00 58 1017.0
20260506165430 56 292 1.7 2.6 0.00 0.00 0.00 58 1017.0
20260506165307 56 292 1.7 2.6 0.00 0.00 0.00 58 1017.0
20260506164428 56 292 1.7 2.6 0.00 0.00 0.00 58 1017.0
20260506164305 56 292 1.7 2.6 0.00 0.00 0.00 58 1017.0
20260506163426 56 292 1.7 2.6 0.00 0.00 0.00 58 1017.0
20260506163304 56 292 1.7 2.6 0.00 0.00 0.00 58 1017.0
20260506162425 56 292 1.7 2.6 0.00 0.00 0.00 58 1017.0
20260506162306 56 292 1.7 2.6 0.00 0.00 0.00 58 1017.0
20260506161423 58 292 1.7 2.6 0.00 0.00 0.00 47 1017.0
20260506161300 58 292 1.7 2.6 0.00 0.00 0.00 47 1017.0
20260506160422 58 292 1.7 2.6 0.00 0.00 0.00 47 1017.0
20260506160259 58 292 1.7 2.6 0.00 0.00 0.00 47 1017.0
20260506155421 58 289 2.6 2.6 0.00 0.00 0.00 47 1017.0
20260506155258 58 289 2.6 2.6 0.00 0.00 0.00 47 1017.0
20260506154420 57 289 2.6 2.6 0.00 0.00 0.00 55 1017.0
20260506154257 57 289 2.6 2.6 0.00 0.00 0.00 55 1017.0
20260506153418 57 289 2.6 2.6 0.00 0.00 0.00 55 1017.0
20260506153256 57 289 2.6 2.6 0.00 0.00 0.00 55 1017.0
20260506152417 57 289 2.6 2.6 0.00 0.00 0.00 55 1017.0
20260506152254 57 289 2.6 2.6 0.00 0.00 0.00 55 1017.0
20260506151415 60 289 2.6 2.6 0.00 0.00 0.00 59 1017.0
20260506151253 60 289 2.6 2.6 0.00 0.00 0.00 59 1017.0
20260506150414 60 289 2.6 2.6 0.00 0.00 0.00 59 1017.0
20260506150251 60 289 2.6 2.6 0.00 0.00 0.00 59 1017.0
20260506145413 60 292 2.6 2.6 0.00 0.00 0.00 59 1017.0
20260506145250 60 292 2.6 2.6 0.00 0.00 0.00 59 1017.0
20260506144411 59 292 2.6 2.6 0.00 0.00 0.00 59 1017.0
20260506144249 59 292 2.6 2.6 0.00 0.00 0.00 59 1017.0
20260506143410 59 277 1.7 1.7 0.00 0.00 0.00 59 1017.0
20260506143247 59 277 1.7 1.7 0.00 0.00 0.00 59 1017.0
20260506142408 55 277 1.7 1.7 0.00 0.00 0.00 62 1017.0
20260506142245 55 277 1.7 1.7 0.00 0.00 0.00 62 1017.0
20260506141408 58 277 1.7 1.7 0.00 0.00 0.00 59 1017.0
20260506141244 58 277 1.7 1.7 0.00 0.00 0.00 59 1017.0
20260506140406 57 270 1.7 1.7 0.00 0.00 0.00 59 1017.0
20260506140243 57 270 1.7 1.7 0.00 0.00 0.00 59 1017.0
20260506135404 57 270 1.7 1.7 0.00 0.00 0.00 59 1017.0
20260506135241 57 270 1.7 1.7 0.00 0.00 0.00 59 1017.0
20260506134402 58 270 1.7 1.7 0.00 0.00 0.00 59 1017.0
20260506134240 58 270 1.7 1.7 0.00 0.00 0.00 59 1017.0
20260506133401 58 270 1.7 1.7 0.00 0.00 0.00 59 1017.0
20260506133238 58 270 1.7 1.7 0.00 0.00 0.00 59 1017.0
20260506132400 56 270 1.7 1.7 0.00 0.00 0.00 62 1017.0
20260506132237 56 270 1.7 1.7 0.00 0.00 0.00 62 1017.0
20260506131401 57 270 1.7 1.7 0.00 0.00 0.00 55 1017.0
20260506131359 57 270 1.7 1.7 0.00 0.00 0.00 55 1017.0
20260506131236 57 270 1.7 1.7 0.00 0.00 0.00 55 1017.0
20260506130358 57 270 1.7 1.7 0.00 0.00 0.00 55 1017.0
20260506130234 57 270 1.7 1.7 0.00 0.00 0.00 55 1017.0
20260506125358 58 260 1.7 2.6 0.00 0.00 0.00 55 1017.0
20260506125233 58 260 1.7 2.6 0.00 0.00 0.00 55 1017.0
20260506124354 54 260 1.7 2.6 0.00 0.00 0.00 62 1017.0
20260506124231 54 260 1.7 2.6 0.00 0.00 0.00 62 1017.0
20260506123353 54 260 1.7 2.6 0.00 0.00 0.00 62 1017.0
20260506123230 54 260 1.7 2.6 0.00 0.00 0.00 62 1017.0
20260506122352 54 260 1.7 2.6 0.00 0.00 0.00 62 1017.0
20260506122228 54 260 1.7 2.6 0.00 0.00 0.00 62 1017.0
20260506121350 54 260 1.7 2.6 0.00 0.00 0.00 71 1018.0
20260506121227 54 260 1.7 2.6 0.00 0.00 0.00 71 1018.0
20260506120349 54 260 1.7 2.6 0.00 0.00 0.00 71 1018.0
20260506120226 54 260 1.7 2.6 0.00 0.00 0.00 71 1018.0
20260506115348 54 256 1.7 2.6 0.00 0.00 0.00 71 1018.0
20260506115224 54 256 1.7 2.6 0.00 0.00 0.00 71 1018.0
20260506114346 54 256 1.7 2.6 0.00 0.00 0.00 71 1018.0
20260506114222 54 256 1.7 2.6 0.00 0.00 0.00 71 1018.0
20260506113345 54 256 1.7 2.6 0.00 0.00 0.00 67 1018.0
20260506113221 54 256 1.7 2.6 0.00 0.00 0.00 67 1018.0
20260506112343 54 256 1.7 2.6 0.00 0.00 0.00 67 1018.0
20260506112220 54 256 1.7 2.6 0.00 0.00 0.00 67 1018.0
20260506111342 54 256 1.7 2.6 0.00 0.00 0.00 67 1018.0
20260506111218 54 256 1.7 2.6 0.00 0.00 0.00 67 1018.0
20260506110341 54 255 1.7 1.7 0.00 0.00 0.00 67 1018.0
20260506110217 54 255 1.7 1.7 0.00 0.00 0.00 67 1018.0